Zurück zum Katalog

ARIANE 2 DEB

AktivHEO
NORAD 40788·DEBRIS·🇫🇷 France

Gestartet Jan 27, 1989 von Guiana Space Centre

Loading…

Nächste Überflüge (nächste 24 Stunden)

TLE

AktuellSource: Space-Track

Epoche: Sep 7, 2026, 21:08 UTC

1 40788U 89006CH  26250.88122706  .00000178  00000-0  61082-3 0  9995
2 40788   8.6076 167.0857 6235307 223.1527  66.2487  3.54700918146773

Verfolge ARIANE 2 DEB in Echtzeit mit AllMySat

Download on the App Store